Location: Regensburg
(48.4565°N, 10.3217°E)
Time: 03:12:12
(UTC+01:00)

ISS - Pass Details

Date: 12 November 2017
Orbit: 402 x 407 km, 51.6° (Epoch: 24 November)

Event Time Altitude Azimuth Distance (km) Brightness Sun altitude
Exits shadow 04:19:50 13° 73° (ENE) 1,288 -0.5 -30.2°
Drops below altitude 10° 04:20:16 10° 75° (ENE) 1,457 -0.1 -30.1°
Sets 04:22:24 0° 82° (E) 2,316 1.2 -29.7°
